Simultaneous Nadir Overpasses (SNOs) Predictions

Prediction of SNOs between GOES-15 and NPP Satellite Orbit:

Table of predicted SNOs for the next 14.0 days since TLE Epoch: 12/11/2011
Index Date Time (GOES-15) GOES-15 Lat,Lon NPP Lat,Lon Distance(km) Time Diff (sec)
1 12/12/2011 10:27:23 -0.02,-133.25 0.39,-135.19 220.17 80
2 12/13/2011 10:05:59 -0.01,-133.95 -0.76,-130.69 372.59 80
3 12/14/2011 22:30:37 0.03,-135.22 -0.17,-136.04 94.60 80
4 12/15/2011 22:09:14 0.01,-135.93 0.99,-131.54 499.21 80
5 12/17/2011 10:33:43 -0.03,-136.83 -0.03,-136.86 3.28 80
6 12/18/2011 22:53:01 0.04,-138.06 -0.91,-142.21 473.66 80
7 12/19/2011 22:34:18 0.03,-138.76 0.25,-137.71 119.58 80
8 12/21/2011 10:58:47 -0.04,-139.68 0.71,-143.03 381.74 80
9 12/22/2011 10:37:24
